Location: Barruelo
(41.2448°N, 3.8231°W)
Time: 09:19:08
(UTC+00:00)

Cosmos 2227 Rocket - Pass Details

Date: 19 March 2026
Orbit: 836 x 845 km, 71.0° (Epoch: 19 April)

Event Time Altitude Azimuth Distance (km) Brightness Sun altitude
Rises 20:46:03 0° 345° (NNW) 3,413 5.9 -26.3°
Reaches altitude 10° 20:48:57 10° 359° (N) 2,475 4.9 -26.8°
Enters shadow 20:52:15 23° 32° (NNE) 1,721 3.7 -27.3°
